| time (UTC) | temp C | wind direction | speed KPH | gust KPH | rain 1hr cm | rain 24hr cm | rain mn cm | humidity % | barometer mb |
| 20260505034536 | 2 | 79 | 1.6 | 3.2 | 0.00 | 0.00 | 0.00 | 82 | 1009.2 |
| 20260505033059 | 2 | 78 | 0.0 | 3.2 | 0.00 | 0.00 | 0.00 | 84 | 1008.8 |
| 20260505031537 | 2 | 79 | 0.0 | 3.2 | 0.00 | 0.00 | 0.00 | 83 | 1008.8 |
| 20260505030033 | 2 | 79 | 1.6 | 3.2 | 0.00 | 0.00 | 0.00 | 84 | 1008.5 |
| 20260505024533 | 2 | 79 | 1.6 | 3.2 | 0.00 | 0.00 | 0.00 | 83 | 1008.3 |
| 20260505023034 | 2 | 103 | 0.0 | 3.2 | 0.00 | 0.00 | 0.00 | 82 | 1008.0 |
| 20260505021630 | 2 | 94 | 1.6 | 4.8 | 0.00 | 0.00 | 0.00 | 83 | 1007.6 |
| 20260505020030 | 2 | 60 | 1.6 | 3.2 | 0.00 | 0.00 | 0.00 | 87 | 1007.5 |
| 20260505014532 | 3 | 60 | 1.6 | 3.2 | 0.00 | 0.00 | 0.00 | 86 | 1007.2 |
| 20260505013030 | 3 | 59 | 0.0 | 1.6 | 0.00 | 0.00 | 0.00 | 87 | 1007.0 |
| 20260505011530 | 3 | 60 | 1.6 | 3.2 | 0.00 | 0.00 | 0.00 | 88 | 1007.2 |
| 20260505010029 | 4 | 59 | 0.0 | 1.6 | 0.00 | 0.00 | 0.00 | 88 | 1007.1 |
| 20260505004539 | 4 | 59 | 0.0 | 1.6 | 0.00 | 0.00 | 0.00 | 87 | 1007.3 |
| 20260505003027 | 4 | 53 | 0.0 | 1.6 | 0.00 | 0.00 | 0.00 | 85 | 1007.3 |
| 20260505001526 | 4 | 49 | 0.0 | 1.6 | 0.00 | 0.00 | 0.00 | 85 | 1007.4 |
| 20260505000026 | 4 | 50 | 0.0 | 1.6 | 0.00 | 0.00 | 0.00 | 85 | 1007.6 |
| 20260504234530 | 4 | 67 | 0.0 | 3.2 | 0.00 | 0.00 | 0.00 | 86 | 1007.6 |
| 20260504233025 | 3 | 78 | 0.0 | 1.6 | 0.00 | 0.00 | 0.00 | 87 | 1007.6 |
| 20260504231537 | 3 | 50 | 0.0 | 3.2 | 0.00 | 0.00 | 0.00 | 88 | 1007.7 |
| 20260504230024 | 3 | 42 | 0.0 | 0.0 | 0.00 | 0.00 | 0.00 | 91 | 1007.2 |
| 20260504224523 | 2 | 43 | 0.0 | 3.2 | 0.00 | 0.00 | 0.00 | 90 | 1007.1 |
| 20260504223023 | 2 | 100 | 1.6 | 11.3 | 0.00 | 0.00 | 0.00 | 88 | 1007.1 |
| 20260504221524 | 3 | 150 | 1.6 | 11.3 | 0.00 | 0.00 | 0.00 | 86 | 1007.6 |
| 20260504220021 | 5 | 54 | 0.0 | 1.6 | 0.00 | 0.00 | 0.00 | 86 | 1007.0 |
| 20260504214526 | 5 | 49 | 0.0 | 0.0 | 0.00 | 0.00 | 0.00 | 85 | 1006.8 |
| 20260504213019 | 4 | 47 | 0.0 | 3.2 | 0.00 | 0.00 | 0.00 | 87 | 1006.9 |
| 20260504211517 | 3 | 338 | 0.0 | 3.2 | 0.00 | 0.00 | 0.00 | 90 | 1007.3 |
| 20260504210017 | 3 | 347 | 0.0 | 8.0 | 0.00 | 0.00 | 0.00 | 89 | 1008.1 |
| 20260504204537 | 3 | 81 | 6.4 | 16.1 | 0.00 | 0.00 | 0.00 | 82 | 1008.3 |
| 20260504203017 | 5 | 34 | 0.0 | 6.4 | 0.00 | 0.00 | 0.00 | 79 | 1007.2 |
| 20260504201516 | 5 | 46 | 0.0 | 8.0 | 0.00 | 0.00 | 0.00 | 77 | 1007.3 |
| 20260504200018 | 6 | 91 | 1.6 | 6.4 | 0.00 | 0.00 | 0.00 | 82 | 1007.2 |
| 20260504194514 | 5 | 45 | 0.0 | 4.8 | 0.00 | 0.00 | 0.00 | 82 | 1007.4 |
| 20260504193021 | 5 | 360 | 1.6 | 9.7 | 0.00 | 0.00 | 0.00 | 88 | 1007.5 |
| 20260504191513 | 4 | 354 | 1.6 | 9.7 | 0.00 | 0.00 | 0.00 | 88 | 1007.7 |
| 20260504190012 | 5 | 18 | 3.2 | 12.9 | 0.00 | 0.00 | 0.00 | 85 | 1007.5 |
| 20260504184510 | 5 | 22 | 0.0 | 4.8 | 0.00 | 0.00 | 0.00 | 87 | 1007.7 |
| 20260504183009 | 5 | 70 | 0.0 | 3.2 | 0.00 | 0.00 | 0.00 | 89 | 1007.9 |
| 20260504181510 | 3 | 79 | 0.0 | 4.8 | 0.00 | 0.00 | 0.00 | 89 | 1008.4 |
| 20260504180007 | 3 | 334 | 1.6 | 6.4 | 0.00 | 0.00 | 0.00 | 94 | 1008.7 |
| 20260504174506 | 1 | 286 | 0.0 | 4.8 | 0.00 | 0.00 | 0.00 | 93 | 1008.7 |
| 20260504173006 | 1 | 276 | 0.0 | 1.6 | 0.00 | 0.00 | 0.00 | 90 | 1009.4 |
| 20260504171518 | 1 | 229 | 0.0 | 9.7 | 0.00 | 0.00 | 0.00 | 85 | 1009.6 |
| 20260504081544 | 1 | 83 | 0.0 | 0.0 | 0.00 | 0.00 | 0.00 | 60 | 1011.7 |
| 20260504050024 | 2 | 83 | 1.6 | 3.2 | 0.00 | 0.00 | 0.00 | 52 | 1012.1 |
| 20260504044526 | 3 | 80 | 1.6 | 3.2 | 0.00 | 0.00 | 0.00 | 51 | 1012.1 |
| 20260504043022 | 3 | 80 | 0.0 | 1.6 | 0.00 | 0.00 | 0.00 | 49 | 1012.1 |
| 20260504041521 | 3 | 80 | 0.0 | 1.6 | 0.00 | 0.00 | 0.00 | 49 | 1012.1 |
| 20260504040023 | 3 | 80 | 1.6 | 3.2 | 0.00 | 0.00 | 0.00 | 48 | 1012.1 |